Regional Weather Roundup
Issued by NWS Charleston, SC

Current Version | Previous Version | Graphics & Text | Print | Product List | Glossary On
Versions: 1 2 3 4 5 6 7 8 9 10 11 12 13 14 15 16 17 18 19 20 21 22 23 24 25 26 27 28 29 30 31 32 33 34 35 36 37 38 39 40 41 42 43 44 45 46 47 48 49 50
000 ASUS42 KCHS 301125 RWRCHS REGIONAL WEATHER ROUNDUP NATIONAL WEATHER SERVICE CHARLESTON SC 700 AM EDT WED JUL 30 2014 NOTE: "FAIR" INDICATES FEW OR NO CLOUDS BELOW 12,000 FEET WITH NO SIGNIFICANT WEATHER AND/OR OBSTRUCTIONS TO VISIBILITY. NOT ALL STATIONS ARE QUALITY CONTROLLED BY THE NATIONAL WEATHER SERVICE. USE DATA WITH CAUTION...ESPECIALLY DEWPOINT OBSERVATIONS. SCZ027-030-031-034>040-042>050-301200- ...SOUTH CAROLINA... CITY SKY/WX TMP DP RH WIND PRES REMARKS N CHARLESTON PTCLDY 73 69 87 N5 29.98R WATERFRONT PRK N/A 77 N/A N/A N9 N/A FORT JOHNSON NOT AVBL MOUNT PLEASANT LGT RAIN 72 72 100 CALM 29.98S JOHNS ISLAND SUNNY 75 72 88 CALM 29.98R FOG PINOPOLIS N/A 75 70 83 E5 29.91R MONCKS CORNER N/A 70 70 100 CALM 29.99R FOG SUMMERVILLE FAIR 68 68 100 N3 29.99S BEAUFORT MCAS PTCLDY 73 71 93 CALM 29.97R BEAUFORT ARPT FAIR 73 72 94 CALM 29.97R HILTON HEAD IS MOCLDY 75 73 94 NE7 29.98R GEORGETOWN NOT AVBL WALTERBORO SUNNY 68 N/A N/A CALM 29.99R ORANGEBURG MOCLDY 72 62 71 N7 30.00R BARNWELL FAIR 70 63 78 NE7 30.00R AIKEN FAIR 68 61 77 NE6 30.04S MANNING CLOUDY 70 N/A N/A CALM 30.00R KINGSTREE NOT AVBL COLUMBIA MOCLDY 71 58 63 N3 30.01R SUMTER CLEAR 67 62 85 N5 30.00R FLORENCE CLEAR 66 62 87 N5 30.01R MYRTLE BEACH PTCLDY 72 66 83 N7 29.99R N MYRTLE BEACH CLEAR 70 67 90 NE5 30.00R $$ GAZ063-065-086>088-099>101-113>116-118-119-134-136>141-150-301200- ...GEORGIA... CITY SKY/WX TMP DP RH WIND PRES REMARKS SAVANNAH ARPT MOCLDY 71 63 75 CALM 29.96S HUNTER AAF PTCLDY 74 65 72 N3 29.95R FORT STEWART MOCLDY 70 64 81 N2 29.95S HAZE STATESBORO NOT AVBL SYLVANIA SUNNY 67 67 100 CALM 29.99R CLAXTON FAIR N/A N/A N/A CALM 29.98R THOMSON PTCLDY 62 62 100 CALM 30.06S AUGUSTA-BUSH PTCLDY 68 59 73 N6 29.99R AUGUSTA-DANIEL PTCLDY 70 57 63 N7 30.01R SWAINSBORO FAIR 64 64 100 CALM 30.00R VIDALIA N/A 68 63 83 N3 29.99S ALMA MOCLDY 69 61 75 NW5 29.97S WAYCROSS PTCLDY 71 65 83 CALM 29.98R JESUP LGT RAIN 77 64 65 CALM 29.97R BRUNSWICK PTCLDY 72 68 88 NW3 29.96R SAINT SIMONS PTCLDY 75 72 90 N6 29.95R $$ SCZ027-028-034-036>038-045-046-048>050-GAZ119-141-301200- ...LAKE AND SUPPLEMENTAL COASTAL OBSERVATIONS... STATION/POSITION TIME TEMP WIND PRES WAVE SWELL AIR SEA DIR/SP/G HT/PER HT/PER/DIR (UTC) (F) (DEG/KT/KT) (MB) (FT/S) (FT/S/D) UPR LAKE MARION NOT AVBL WINYAH BAY 1100 72 330/ 2 1015.0S LAKE MURRAY 1000 68 360/ 3/ 6 1015.9S ACE BASIN NERRS 1100 72 CALM 1015.0R FORT PULASKI 1100 78 40/ 4/ 5 1014.8R SAPELO ISLAND 1100 76 30/ 3 1014.0S $$ ANZ835-935-AMZ111-154-330-350-352-354-374-450-454-472-301200- ...C-MAN AND BUOY OBSERVATIONS... STATION/POSITION TIME TEMP WIND PRES WAVE SWELL AIR SEA DIR/SP/G HT/PER HT/PER/DIR (UTC) (F) (DEG/KT/KT) (MB) (FT/S) (FT/S/D) FOLLY BEACH CMAN 1100 81 80/ 7/ 9 1015.3R BUOY 41004 1000 81 84 70/ 8/ 10 1013.8R 2/ 8 2/ 8 BUOY 41008 1100 82 85 90/ 6/ 10 1014.0R 1/ 8 2/120/ 8 5E ST. MARYS GA 1100 85 N/A 2/ 8 FRYING PAN BUOY NOT AVBL BUOY 41025 1100 VRB 12/ 14 1015.5R 3/ 8 3/120/ 8 CAPE LOOKOUT NC 1100 77 50/ 12/ 13 1015.8R BUOY 41002 0956 79 80 260/ 8/ 10 1014.0R 5/ 7 5/210/ 7 BUOY 41010 1100 83 84 250/ 10/ 12 1014.0R 3/ 5 3/240/ 5 BUOY 41012 NOT AVBL ST AUGUSTINE FL 1100 74 300/ 6/ 7 1014.4R CAPERS NEARSHORE 1000 80 100/ 6/ 8 N/A FRIPP NEARSHORE NOT AVBL $$

USA.gov is the U.S. government's official web portal to all federal, state and local government web resources and services.